Regional Weather Roundup
Issued by NWS Pendleton, OR

Home | Current Version | Previous Version | Text Only | Print | Product List | Glossary On
Versions: 1 2 3 4 5 6 7 8 9 10 11 12 13 14 15 16 17 18 19 20 21 22 23 24 25 26 27 28 29 30 31 32 33 34 35 36 37 38 39 40 41 42 43 44 45 46 47 48 49 50
000
ASUS46 KPDT 250325
RWRPDT
PENDLETON REGIONAL WEATHER ROUNDUP
NATIONAL WEATHER SERVICE PENDLETON OREGON
800 PM PDT SUN MAY 24 2015

NOTE: FAIR INDICATES FEW OR NO CLOUDS BELOW 12,000 FEET WITH NO
SIGNIFICANT WEATHER AND/OR OBSTRUCTIONS TO VISIBILITY.

# INDICATES UNOFFICIAL STATION AND DATA

WAZ520-250410-
EAST SLOPES OF WASHINGTON CASCADES

CITY            SKY/WX      TMP DP  RH  WIND    PRES   REMARKS
#BULLFROG 2SW   N/A         55  44  66  S3      27.56R
#BUMPING DAM    N/A         57  N/A N/A S1      N/A
#CLE ELUM HS    N/A         57  46  67  W9      29.89S
#CLE ELUM LAKE  N/A         54  45  71  NW3     29.86R
#CLIFFDEL 2NW   N/A         55  44  66  N6      N/A
#MANASTASH CYN  N/A         59  38  45  CALM    29.88S
#NELSON         N/A         58  46  64  NW1     29.89S
#NELSON 3SW     N/A         54  44  69  S1      30.10R
#NILE           N/A         59  46  62  SW3     29.13S
#RONALD 2NW     N/A         57  38  49  NW2     29.83R
#SNOWDEN        N/A         53  40  61  NW2     N/A
#TEANAWAY 4NE   N/A         58  49  72  SW7     N/A
#TROUT LAKE 1NE N/A         60  47  62  SW9     29.86R
$$

WAZ521-250410-
SIMCOE HIGHLANDS

CITY            SKY/WX      TMP DP  RH  WIND    PRES   REMARKS
#CENTERVILLE 4W N/A         59  49  69  W18     29.61S
#CENTERVILLE 1SWN/A         57  47  69  W22     29.79F
#GOLDENDALE     N/A         64  49  58  W12     N/A
#GOLDENDALE 1NE N/A         60  39  46  SW3     N/A
#GOLDENDALE 5WNWN/A         59  49  69  W16     29.82R
#GOODNOE HILLS  N/A         62  49  62  NW21    N/A
#LYLE 6NE       N/A         56  49  77  W8      29.85S
$$

WAZ026-250410-
KITTITAS VALLEY

CITY            SKY/WX      TMP DP  RH  WIND    PRES   REMARKS
ELLENSBURG AP   CLOUDY      63  45  52  NW22G32 29.87R
#ELLENSBURG CWU N/A         62  46  56  N13     29.78R
#ELLENSBURG 3NE N/A         60  47  62  N13G28  29.87S
#KITTITAS 3S    N/A         61  47  60  NW8     29.79R
#THORP 6N       N/A         56  46  69  W14G30  29.87R
$$

WAZ027-250410-
YAKIMA VALLEY

CITY            SKY/WX      TMP DP  RH  WIND    PRES   REMARKS
SUNNYSIDE AP    CLOUDY      74  47  38  N10     29.77S
YAKIMA AIRPORT  PTCLDY      72  43  35  N16     29.82R
#DONALD 2NE     N/A         71  27  19  N6      28.65R
#GRANDVIEW      N/A         76  50  40  CALM    29.74F
#MABTON         N/A         80  51  36  CALM    29.75S
#MOXEE 2E       N/A         78  26  15  SE5     29.81F
#NACHES 2SW     N/A         63  46  54  W15G28  29.83F
#OUTLOOK DOT    N/A         N/A N/A N/A W5      N/A
#SELAH 8E       N/A         65  38  37  N6      N/A
#TERRACE HTS    N/A         70  40  34  N8      29.73R
#TOPPENISH      N/A         72  46  39  N13     29.68R
#WEST VALLEY    N/A         68  45  44  N7      29.75R
#WHITE SWAN 5E  N/A         73  52  48  N3      29.76R
#WILEY CITY 3W  N/A         68  41  37  CALM    29.79R
$$

WAZ028-250410-
LOWER COLUMBIA BASIN...WASHINGTON

CITY            SKY/WX      TMP DP  RH  WIND    PRES   REMARKS
PASCO           CLOUDY      80  50  35  SW9     29.76F
RICHLAND AWOS   MOCLDY      79  52  39  S6      29.76S
#BASIN CITY 5SW N/A         71  59  66  CALM    29.76F
#BENTON CITY    N/A         76  52  43  S5      29.64F
#CONNELL 5N     N/A         73  55  53  SW2     29.74F
#CONNELL 5NW    N/A         71  57  61  CALM    29.70F
#ELTOPIA        N/A         74  59  59  SE1     29.70F
#ELTOPIA 6NW    N/A         72  60  66  CALM    28.75F
#KAHLOTUS       N/A         75  48  38  W10     29.75S
#KENNEWICK      N/A         55  44  66  S3      27.56R
#KENNEWICK 3S   N/A         74  52  46  N5      29.74F
#PASCO-BROADMOORN/A         80  51  36  S1      29.62F
#PATERSON       N/A         71  52  51  SW12    29.73F
#PROSSER        N/A         76  50  40  SE2     29.72F
#SAGEMOOR 2W    N/A         76  58  54  CALM    29.59F
#TOUCHET 2S     N/A         74  60  62  SE1     29.72S
#WEST PASCO     N/A         79  54  42  E1      29.71F
$$

WAZ029-250410-
FOOTHILLS OF THE BLUES...WASHINGTON

CITY            SKY/WX      TMP DP  RH  WIND    PRES   REMARKS
WALLA WALLA AP  CLOUDY      74  52  46  E7      29.80F
#DAYTON SCHOOL  N/A         70  50  49  CALM    29.84S
#LOWDEN 2SE     N/A         73  61  66  E1      29.73S
#PRESCOTT       N/A         72  57  59  CALM    29.74S
#SUDBURY        N/A         71  N/A N/A CALM    N/A
#WHITMAN COLLEGEN/A         75  52  45  E3      29.80F
#WAITSBURG 8N   N/A         68  28  22  S3      29.62F
#WALLA WALLA U  N/A         77  53  43  CALM    29.75F
#WHITMAN MISSIONN/A         74  60  62  CALM    29.76F
$$

WAZ030-250410-
BLUE MOUNTAINS...WASHINGTON

CITY            SKY/WX      TMP DP  RH  WIND    PRES   REMARKS
#DIXIE 5SE      N/A         65  45  48  CALM    29.82F
$$

ORZ009-041-WAZ024-250410-
COLUMBIA RIVER GORGE

CITY            SKY/WX      TMP DP  RH  WIND    PRES   REMARKS
HOOD RIVER AP   PTCLDY      63  48  58  W5      29.94S
THE DALLES AP   PTCLDY      66  48  52  NW16G26 29.86R
#ARLINGTON AIRPON/A         65  48  54  W20     29.82S
#CELILO DOT     N/A         68  47  47  SW12    N/A
#MOSIER 1S      N/A         62  39  43  W15G26  29.88S
#MURDOCK        N/A         66  51  58  N15G35  29.87S
#RUFUS DOT      N/A         69  47  45  N6      N/A

$$

ORZ510-250410-
NORTH CENTRAL OREGON

CITY            SKY/WX      TMP DP  RH  WIND    PRES   REMARKS
#CHENOWITH 1W   N/A         58  46  64  W40     N/A
#COW CYN RST AREN/A         66  29  25  SW7     N/A
#DUFUR 9E       N/A         59  45  60  W15     29.91S
#GRASS VALLEY 1SN/A         64  42  45  NW15    29.85F
#KENT DOT       N/A         64  25  23  NW15    N/A
#MAUPIN SCHOOL  N/A         69  47  45  W7      29.87S
#MORO SCHOOL    N/A         61  53  75  NW15    29.90S
#SHANIKO 5WSW   N/A         65  16  15  W16     N/A
#SHANIKO 4NW    N/A         62  22  21  W12     29.93S
#TYGH VALLEY 2NEN/A         70  35  28  N9      29.81S
#WAPANITIA AIRPON/A         62  45  54  W7      29.85R
#WASCO DOT      N/A         64  45  50  W14     N/A
#WASCO AIRPORT  N/A         61  46  58  W10     N/A
#WASCO 5NE      N/A         60  47  62  W12G28  29.82S
$$

ORZ511-250410-
CENTRAL OREGON

CITY            SKY/WX      TMP DP  RH  WIND    PRES   REMARKS
BEND AIRPORT    CLEAR       63  45  52  NW9     29.94S
PRINEVILLE AP   PTCLDY      64  36  35  N10     29.93R
REDMOND AIRPORT PTCLDY      65  46  50  NW13    29.93R
#BEND 1SW       N/A         61  46  58  CALM    N/A
#BEND-KIM LN    N/A         63  44  50  NW6     29.92S
#CROOKED RVR RANN/A         67  46  47  N1      29.85R
#CULVER         N/A         65  43  45  N2      29.88S
#LAKE BILLY CHINN/A         66   8  10  N12     29.98R
#POWELL BUTTE 3EN/A         69  45  42  N9      N/A
#PRINEVILLE 3N  N/A         61  41  48  W6      29.81R
#WARM SPRINGS   N/A         68  38  33  S9      29.87R

$$


ORZ509-250410-
EAST SLOPES OF OREGON CASCADES

CITY            SKY/WX      TMP DP  RH  WIND    PRES   REMARKS
#BLUE BOX PASS  N/A         46  -6  11  NW8     N/A
#CAMP SHERMAN   N/A         60  46  60  CALM    29.90S
#LA PINE 4NW    N/A         59  46  62  CALM    29.93S
#SISTERS AIRPOR N/A         62  52  70  N9      30.17S
#SISTERS ODOT   N/A         64  N/A N/A SE8     N/A
#SISTERS 1NW    N/A         63  44  50  N10     N/A
#SISTERS 3N     N/A         60  42  51  CALM    29.93F
#SUNRIVER       N/A         62  49  62  CALM    29.76R
#TUMALO 3W      N/A         62  42  48  N9      29.75S
#WANOGA BUTTE D N/A         56  36  47  W6      N/A

$$

ORZ044-250410-
LOWER COLUMBIA BASIN...OREGON

CITY            SKY/WX      TMP DP  RH  WIND    PRES   REMARKS
HERMISTON       MOCLDY      76  49  39  W10     29.78S
#BOARDMAN SCHOOLN/A         72  51  48  SW9     29.78S
#ECHO 8SW       N/A         73  51  46  W7      29.80S
#IONE SCHOOL    N/A         68  47  47  W13     29.80R
#IRRIGON 4NW    N/A         75  53  46  S13     N/A
#UMATILLA SCHOOLN/A         76  61  60  W9      29.85S
#UMATILLA       N/A         76  53  45  CALM    29.68F
$$

ORZ507-250410-
NORTHERN FOOTHILLS OF THE BLUES

CITY            SKY/WX      TMP DP  RH  WIND    PRES   REMARKS
PENDLETON AIRPT MOCLDY      69  52  55  W7      29.81S
#ADAMS 3WNW     N/A         70  57  63  CALM    29.76S
#ATHENA         N/A         73  53  49  CALM    29.79S
#CAYUSE         N/A         75  50  41  CALM    29.76S
#HELIX SCHOOL   N/A         72  53  51  CALM    29.76F
#HELIX 3N       N/A         71  48  44  SW3     29.81S
#HOLDMAN 6E     N/A         70  50  49  CALM    29.58F
#M-F FERNDALE   N/A         74  54  50  CALM    29.78F
#M-F GROVE ELEM N/A         75  53  46  CALM    29.78F
#M-FREEWATER 5SEN/A         75  58  56  CALM    29.81S
#PENDLETON DNTN N/A         75  45  34  CALM    29.81S
#PDT AQUATIC CTRN/A         75  49  40  NW3     29.83S
#PENDLETON 5NE  N/A         71  56  59  CALM    29.78S
#PDT SUNRIDGE   N/A         75  51  43  NW2     29.81S
#PENDLETON 7NW  N/A         75  56  52  CALM    29.55F
#PILOT ROCK     N/A         71  50  47  CALM    29.85S
#TUTUILLA       N/A         71  54  55  CALM    29.79S
#UMAPINE 2E     N/A         72  62  71  CALM    29.75S
#WESTON SCHOOL  N/A         71  52  51  CALM    29.79S

$$

ORZ508-250410-
SOUTHERN FOOTHILLS OF THE BLUES

CITY            SKY/WX      TMP DP  RH  WIND    PRES   REMARKS
#AJAX           N/A         62  39  43  SW13    29.83S
#CONDON 5W      N/A         60  33  36  NW12    29.88S
#FOSSIL SCHOOL  N/A         69  42  37  NW2     29.88R
#HEPPNER EOC    N/A         68  48  49  NW1     29.74R
#HEPPNER 4NE    N/A         65  47  52  W7      29.80S
#LEXINGTON 2SE  N/A         69  48  47  W6      29.83R
#RUGGS 5NE      N/A         65  43  45  W8      30.07S
#RUGGS 2SW      N/A         65  47  52  NW5     29.82R

$$

ORZ502-503-250410-
BLUE MOUNTAINS

CITY            SKY/WX      TMP DP  RH  WIND    PRES   REMARKS
MEACHAM         MOCLDY      61  47  60  CALM    29.92S
#BATTLE MTN DOT N/A         61  48  62  N1      N/A
#HEPPNER 15SE   N/A         58  48  69  CALM    29.84S
#LONG CREEK HS  N/A         65  50  58  CALM    29.86S
#N POWDER DOT   N/A         66  46  48  N12     N/A
#PIKES PEAK     N/A         64  47  54  S2      27.99S
#TOLLGATE       N/A         57  48  72  CALM    29.90F
#TROY SCHOOL    N/A         71  56  59  CALM    29.61S
#UKIAH          N/A         64  50  60  N3      29.84S
#WESTON 4E      N/A         67  52  59  CALM    29.75S
$$

ORZ505-250410-
JOHN DAY BASIN

CITY            SKY/WX      TMP DP  RH  WIND    PRES   REMARKS
JOHN DAY        PTCLDY      66  46  48  CALM    29.91S
#JOHN DAY KJDY  N/A         70  50  49  CALM    29.96F
#DAYVILLE SCHOOLN/A         72  44  37  CALM    29.84S
#MITCHELL       N/A         66  57  73  CALM    30.04R
#MONUMENT HS    N/A         73  46  38  N2      29.85S
#MT. VERNON 5SE N/A         64  47  54  CALM    29.87F
$$

ORZ506-250410-
OCHOCO AND JOHN DAY HIGHLANDS

CITY            SKY/WX      TMP DP  RH  WIND    PRES   REMARKS
#PAULINA SCHOOL N/A         69  43  39  NW3     29.89F
#PINE MTN OBS   N/A         54  44  69  NW7     N/A
#PRAIRIE CITY   N/A         65  47  52  CALM    29.78R
#SENECA         N/A         63  N/A N/A N1      N/A
#SENECA 9NW     N/A         60  46  60  CALM    29.79S
$$

ORZ049-250410-
GRANDE RONDE VALLEY

CITY            SKY/WX      TMP DP  RH  WIND    PRES   REMARKS
LA GRANDE       MOCLDY      64  45  50  NW8     29.86S
#COVE           N/A         66  56  70  CALM    29.89S
#COVE SCHOOL    N/A         66  53  63  CALM    29.86S
#ELGIN 3N       N/A         66  47  50  NW1     29.85S
#ELGIN 1E       N/A         68  50  53  CALM    N/A
#ISLAND CITY 4N N/A         62  55  78  CALM    29.98S
#LADD CYN DOT   N/A         70  45  41  CALM    N/A
#LA GRANDE ELEM N/A         65  50  58  W1      29.90S
#UNION 1S       N/A         68  52  57  CALM    29.68F
$$

ORZ050-250410-
WALLOWA COUNTY

CITY            SKY/WX      TMP DP  RH  WIND    PRES   REMARKS
JOSEPH AIRPORT  N/A         63  46  54  CALM    29.93S
#ENTERPRISE HS  N/A         64  49  58  CALM    29.92R
#IMNAHA SCHOOL  N/A         71  49  46  CALM    29.83R
#IMNAHA 10S     N/A         66  47  50  SW3     29.86R
#JOSEPH 3N      N/A         60  46  60  CALM    29.95R
#JOSEPH 3W      N/A         55  44  66  SW2     29.80S
#LOSTINE        N/A         64  48  56  CALM    29.59S
#MT HOWARD 8000 N/A         43  38  82  NW3     30.08R
#PROMISE 1S     N/A         62  47  58  CALM    29.88F
#SHEEP RDG 7000 N/A         48  39  71  CALM    29.86S
#WALLOWA SCHOOL N/A         67  48  50  CALM    30.67S



$$



USA.gov is the U.S. government's official web portal to all federal, state and local government web resources and services.